Terug naar catalogus

STARLINK-35716

ActiefCommunicatieVLEO
NORAD 67191·PAYLOAD·🇺🇸 United States

Gelanceerd Dec 17, 2025 vanaf Cape Canaveral Space Force Station

Loading…

Volgende Passages (komende 24 uur)

TLE

VersSource: CelesTrak SupGP

Epoch: Sep 15, 2026, 04:21 UTC

1 67191C 25303AE  26258.18173611  .00028607  00000+0  10357-2 0  2586
2 67191  43.0011 320.9857 0001414 263.6077 345.6261 15.27577342    11

Volg STARLINK-35716 in realtime met AllMySat

Download on the App Store